G1 CYXU-CYXU

Flight info

Callsign G1
Flight time N/A
Altitude 2000
Route CYXU/15 VFR CIRCUITS
Aircraft RAFL

Departure

Time 2026-04-28 03:24
Airport London International Airport (CYXU)

Arrival

Time N/A
Airport London International Airport (CYXU)
Time Latitude Longitude Altitude Speed Heading
2026-04-28 03:09 43.03581 -81.16249 907 ft 0 kts 332°
2026-04-28 03:12 43.03591 -81.16251 907 ft 6 kts
2026-04-28 03:12 43.03615 -81.16226 907 ft 9 kts 46°
2026-04-28 03:13 43.03640 -81.16173 906 ft 4 kts 69°
2026-04-28 03:13 43.03651 -81.16114 905 ft 10 kts 80°
2026-04-28 03:13 43.03662 -81.16035 905 ft 7 kts 79°
2026-04-28 03:13 43.03668 -81.15989 904 ft 1 kts 79°
2026-04-28 03:15 43.03676 -81.15925 904 ft 18 kts 80°
2026-04-28 03:15 43.03746 -81.15746 900 ft 21 kts 345°
2026-04-28 03:15 43.03869 -81.15898 903 ft 25 kts 322°
2026-04-28 03:15 43.03927 -81.15959 903 ft 13 kts 322°
2026-04-28 03:16 43.03952 -81.15986 904 ft 0 kts 326°
2026-04-28 03:16 43.03963 -81.15996 905 ft 0 kts 330°
2026-04-28 03:16 43.03998 -81.16016 906 ft 5 kts 350°
2026-04-28 03:16 43.04033 -81.16013 908 ft 8 kts
2026-04-28 03:17 43.04038 -81.16012 908 ft 0 kts
2026-04-28 03:18 43.04056 -81.16011 909 ft 0 kts
2026-04-28 03:23 43.04110 -81.15991 910 ft 26 kts 27°
2026-04-28 03:23 43.04144 -81.15907 910 ft 7 kts 128°
2026-04-28 03:23 43.04135 -81.15896 909 ft 0 kts 139°
2026-04-28 03:24 43.04121 -81.15879 909 ft 19 kts 139°
2026-04-28 03:24 43.03350 -81.14957 1016 ft 270 kts 139°
2026-04-28 03:24 43.01872 -81.13102 1329 ft 288 kts 126°
2026-04-28 03:24 43.01293 -81.10640 1761 ft 267 kts 90°
2026-04-28 03:25 43.02061 -81.08646 1863 ft 228 kts 353°
2026-04-28 03:25 43.03374 -81.09839 1751 ft 223 kts 317°
2026-04-28 03:25 43.04421 -81.11196 1814 ft 198 kts 315°
2026-04-28 03:25 43.05438 -81.12609 1894 ft 222 kts 313°
2026-04-28 03:26 43.06573 -81.14217 2058 ft 243 kts 314°
2026-04-28 03:26 43.07803 -81.15860 2189 ft 246 kts 316°
2026-04-28 03:26 43.09004 -81.17422 2208 ft 231 kts 316°
2026-04-28 03:26 43.09696 -81.19240 2150 ft 211 kts 241°
2026-04-28 03:27 43.08530 -81.19786 2051 ft 198 kts 185°
2026-04-28 03:27 43.07178 -81.19646 1969 ft 192 kts 156°
2026-04-28 03:27 43.06219 -81.18429 1638 ft 187 kts 134°
2026-04-28 03:27 43.05271 -81.17250 1289 ft 198 kts 138°
2026-04-28 03:28 43.04212 -81.15977 948 ft 196 kts 139°
2026-04-28 03:28 43.03162 -81.14742 1089 ft 226 kts 140°
2026-04-28 03:28 43.01841 -81.13243 1443 ft 247 kts 136°
2026-04-28 03:28 43.01243 -81.11290 1396 ft 225 kts 66°
2026-04-28 03:29 43.02141 -81.09570 1368 ft 229 kts 30°
2026-04-28 03:29 43.03586 -81.09262 1731 ft 195 kts 347°
2026-04-28 03:29 43.04756 -81.09850 1817 ft 173 kts 337°
2026-04-28 03:29 43.05826 -81.10483 1924 ft 161 kts 335°
2026-04-28 03:30 43.06802 -81.11075 2043 ft 146 kts 336°
2026-04-28 03:30 43.07717 -81.11615 1996 ft 142 kts 334°
2026-04-28 03:30 43.08668 -81.12166 2073 ft 176 kts 348°
2026-04-28 03:30 43.09890 -81.11829 2058 ft 191 kts 38°
2026-04-28 03:31 43.10122 -81.10217 2028 ft 200 kts 146°
2026-04-28 03:31 43.08973 -81.10603 2065 ft 204 kts 261°
2026-04-28 03:31 43.09391 -81.12450 2018 ft 225 kts 293°
2026-04-28 03:31 43.09451 -81.14504 1643 ft 217 kts 226°
2026-04-28 03:32 43.08264 -81.15252 1809 ft 158 kts 204°
2026-04-28 03:32 43.07404 -81.16244 1824 ft 182 kts 229°
2026-04-28 03:32 43.06461 -81.17427 1642 ft 180 kts 194°
2026-04-28 03:32 43.05287 -81.17071 1198 ft 179 kts 145°
2026-04-28 03:33 43.04319 -81.16103 973 ft 164 kts 139°
2026-04-28 03:33 43.03472 -81.15075 923 ft 212 kts 138°
2026-04-28 03:33 43.02112 -81.13416 1064 ft 323 kts 140°